FW7622 Weather Reports


Display with metric or nautical units.
time (UTC)temp
F
wind
direction
speed
MPH
gust
MPH
rain 1hr
in
rain 24hr
in
rain mn
in
humidity
%
barometer
mb
20260902032653 66 162 0.0 0.0 0.00 0.00 0.00 99 1013.2
20260902032148 66 162 0.0 0.0 0.00 0.00 0.00 99 1013.2
20260902031642 66 162 0.0 0.0 0.00 0.00 0.00 99 1013.2
20260902031138 66 162 0.0 0.0 0.00 0.00 0.00 99 1013.2
20260902030634 66 162 0.0 0.0 0.00 0.00 0.00 99 1012.9
20260902030133 67 162 0.0 0.0 0.00 0.00 0.00 99 1013.2
20260902025632 67 166 0.0 0.0 0.00 0.00 0.00 99 1013.2
20260902025128 68 166 0.0 0.0 0.00 0.00 0.00 99 1012.9
20260902024623 68 166 0.0 0.0 0.00 0.00 0.00 99 1012.9
20260902024118 68 166 0.0 0.0 0.00 0.00 0.00 99 1012.9
20260902023614 69 165 0.0 0.0 0.00 0.00 0.00 98 1012.5
20260902023108 69 171 0.0 0.0 0.00 0.00 0.00 98 1012.9
20260902022608 69 171 0.0 0.0 0.00 0.00 0.00 98 1012.9
20260902022104 69 171 0.0 0.0 0.00 0.00 0.00 98 1013.2
20260902021559 69 171 0.0 0.0 0.00 0.00 0.00 98 1012.9
20260902021054 69 171 0.0 0.0 0.00 0.00 0.00 98 1012.9
20260902020550 69 171 0.0 0.0 0.00 0.00 0.00 97 1013.2
20260902020046 70 171 0.0 0.0 0.00 0.00 0.00 97 1012.9
20260902015541 70 172 0.0 0.0 0.00 0.00 0.00 97 1012.9
20260902015037 70 172 0.0 0.0 0.00 0.00 0.00 97 1012.9
20260902014533 70 173 0.0 0.0 0.00 0.00 0.00 96 1012.9
20260902014028 70 173 0.0 0.0 0.00 0.00 0.00 95 1012.5
20260902013527 70 173 0.0 0.0 0.00 0.00 0.00 95 1012.5
20260902013023 70 173 0.0 0.0 0.00 0.00 0.00 95 1012.9
20260902012519 71 171 0.0 0.0 0.00 0.00 0.00 95 1012.5
20260902012014 71 171 0.0 0.0 0.00 0.00 0.00 94 1012.2
20260902011509 72 170 0.0 0.0 0.00 0.00 0.00 93 1012.2
20260902011009 72 170 0.0 0.0 0.00 0.00 0.00 93 1012.2
20260902010509 72 170 0.0 0.0 0.00 0.00 0.00 92 1012.2
20260902010004 73 168 0.0 0.0 0.00 0.00 0.00 91 1012.2
20260902005502 73 168 0.0 0.0 0.00 0.00 0.00 90 1012.2
20260902004959 73 168 0.0 0.0 0.00 0.00 0.00 90 1012.2
20260902004458 73 170 0.0 0.0 0.00 0.00 0.00 90 1012.2
20260902003954 74 170 0.0 0.0 0.00 0.00 0.00 89 1012.5
20260902003448 74 170 0.0 0.0 0.00 0.00 0.00 89 1012.2
20260902002944 74 170 0.0 0.0 0.00 0.00 0.00 88 1012.5
20260902002439 74 171 0.0 0.0 0.00 0.00 0.00 90 1012.2
20260902001938 74 172 0.0 0.0 0.00 0.00 0.00 89 1012.5
20260902001433 75 171 0.0 0.0 0.00 0.00 0.00 89 1012.5
20260902000928 75 172 0.0 0.0 0.00 0.00 0.00 88 1012.2
20260902000423 76 188 0.0 0.0 0.00 0.00 0.00 88 1012.5
20260901235918 76 188 0.0 0.0 0.00 0.00 0.00 88 1012.5
20260901235413 76 188 0.0 0.0 0.00 0.00 0.00 87 1012.5
20260901234908 76 188 0.0 0.0 0.00 0.00 0.00 87 1012.5
20260901234402 77 188 0.0 0.0 0.00 0.00 0.00 86 1012.5
20260901233857 77 188 0.0 0.0 0.00 0.00 0.00 85 1012.5
20260901233352 77 188 0.0 0.0 0.00 0.00 0.00 83 1012.2
20260901232849 78 188 0.0 0.0 0.00 0.00 0.00 84 1012.5
20260901232343 78 188 0.0 0.0 0.00 0.00 0.00 83 1012.5
20260901231839 79 188 0.0 0.0 0.00 0.00 0.00 81 1012.2
20260901231335 79 188 0.0 0.0 0.00 0.00 0.00 79 1012.2
20260901230831 80 188 0.0 0.0 0.00 0.00 0.00 82 1012.2
20260901230330 81 188 0.0 0.0 0.00 0.00 0.00 72 1012.2
20260901225826 81 188 0.0 0.0 0.00 0.00 0.00 73 1012.5
20260901225325 81 189 0.0 0.0 0.00 0.00 0.00 75 1012.2
20260901224820 81 182 0.0 0.0 0.00 0.00 0.00 73 1012.2
20260901224317 82 181 0.0 0.0 0.00 0.00 0.00 72 1011.8
20260901223813 82 181 0.0 0.0 0.00 0.00 0.00 72 1012.2
20260901223308 82 180 0.0 0.0 0.00 0.00 0.00 63 1012.2
20260901222804 82 182 0.0 0.0 0.00 0.00 0.00 66 1012.2
20260901222300 83 181 0.0 0.0 0.00 0.00 0.00 63 1012.2
20260901221756 84 214 0.0 1.0 0.00 0.00 0.00 60 1012.2
20260901221251 84 180 0.0 0.0 0.00 0.00 0.00 60 1012.2
20260901220750 84 236 0.0 1.0 0.00 0.00 0.00 61 1011.8
20260901220250 85 193 1.0 1.0 0.00 0.00 0.00 57 1011.8
20260901215749 85 179 0.0 0.0 0.00 0.00 0.00 57 1011.8
20260901215248 86 187 1.0 1.0 0.00 0.00 0.00 56 1012.2
20260901214747 87 178 0.0 0.0 0.00 0.00 0.00 55 1011.8
20260901214246 88 353 3.0 3.0 0.00 0.00 0.00 52 1011.8
20260901213741 88 188 1.0 1.0 0.00 0.00 0.00 51 1012.2
20260901213240 89 183 0.0 1.0 0.00 0.00 0.00 54 1012.2
20260901212735 89 198 0.0 0.0 0.00 0.00 0.00 55 1012.2
20260901212230 88 207 1.0 1.0 0.00 0.00 0.00 54 1012.2
20260901211725 88 140 2.0 2.0 0.00 0.00 0.00 56 1012.2
20260901211222 88 218 2.0 3.0 0.00 0.00 0.00 54 1012.2
20260901210718 89 4 2.0 3.0 0.00 0.00 0.00 54 1012.2
20260901210213 90 179 0.0 0.0 0.00 0.00 0.00 56 1012.5
20260901205709 91 187 1.0 1.0 0.00 0.00 0.00 53 1012.5
20260901205203 90 203 1.0 1.0 0.00 0.00 0.00 59 1012.9
20260901204659 88 195 0.0 1.0 0.00 0.00 0.00 58 1012.5
20260901204155 87 186 0.0 0.0 0.00 0.00 0.00 61 1012.5
20260901203655 87 173 1.0 2.0 0.00 0.00 0.00 61 1012.5
20260901203150 86 158 0.0 0.0 0.00 0.00 0.00 61 1012.2
20260901202649 85 159 2.0 2.0 0.00 0.00 0.00 63 1012.9
20260901202145 85 157 0.0 0.0 0.00 0.00 0.00 62 1012.5
20260901201641 86 171 0.0 1.0 0.00 0.00 0.00 64 1012.5
20260901201140 86 154 2.0 2.0 0.00 0.00 0.00 63 1012.5
20260901200640 87 181 0.0 1.0 0.00 0.00 0.00 61 1012.5
20260901200135 87 190 1.0 2.0 0.00 0.00 0.00 60 1012.2
20260901195633 87 131 0.0 0.0 0.00 0.00 0.00 61 1012.2
20260901195132 87 203 0.0 1.0 0.00 0.00 0.00 64 1012.5
20260901194628 85 179 1.0 1.0 0.00 0.00 0.00 64 1012.9
20260901194123 85 184 0.0 0.0 0.00 0.00 0.00 65 1012.5
20260901193619 86 198 1.0 1.0 0.00 0.00 0.00 62 1012.9
20260901193118 86 276 2.0 2.0 0.00 0.00 0.00 62 1012.5
20260901192614 87 184 0.0 1.0 0.00 0.00 0.00 65 1012.9
20260901192109 87 199 0.0 1.0 0.00 0.00 0.00 60 1012.9
20260901191605 86 162 1.0 1.0 0.00 0.00 0.00 61 1012.9
20260901191101 86 143 1.0 1.0 0.00 0.00 0.00 59 1012.9
20260901190556 86 143 1.0 1.0 0.00 0.00 0.00 59 1012.9
20260901190055 86 143 1.0 1.0 0.00 0.00 0.00 59 1012.9
20260901185554 87 182 0.0 1.0 0.00 0.00 0.00 60 1012.9
20260901185053 87 178 0.0 0.0 0.00 0.00 0.00 60 1013.2
20260901184549 88 208 1.0 2.0 0.00 0.00 0.00 60 1013.2
20260901184044 87 181 0.0 0.0 0.00 0.00 0.00 63 1013.2
20260901183544 88 211 0.0 1.0 0.00 0.00 0.00 62 1013.2
20260901183039 87 235 2.0 2.0 0.00 0.00 0.00 60 1013.2
20260901182536 87 184 1.0 2.0 0.00 0.00 0.00 61 1013.2
20260901182035 87 215 1.0 1.0 0.00 0.00 0.00 61 1013.2
20260901181535 87 195 1.0 1.0 0.00 0.00 0.00 60 1013.2
20260901181029 87 181 1.0 2.0 0.00 0.00 0.00 59 1013.2
20260901180527 86 250 1.0 2.0 0.00 0.00 0.00 62 1013.5
20260901180022 86 349 1.0 1.0 0.00 0.00 0.00 62 1013.2
20260901175516 86 204 1.0 2.0 0.00 0.00 0.00 61 1013.5
20260901175011 85 183 3.0 3.0 0.00 0.00 0.00 64 1013.5
20260901174507 84 210 1.0 2.0 0.00 0.00 0.00 66 1013.5
20260901174002 85 283 0.0 1.0 0.00 0.00 0.00 64 1013.5
20260901173457 85 245 2.0 2.0 0.00 0.00 0.00 63 1013.5
20260901172953 84 148 1.0 1.0 0.00 0.00 0.00 64 1013.9
20260901172448 84 201 2.0 3.0 0.00 0.00 0.00 64 1013.9
20260901171946 84 178 0.0 1.0 0.00 0.00 0.00 63 1013.5
20260901171445 84 176 2.0 2.0 0.00 0.00 0.00 62 1013.5
20260901170944 84 130 2.0 3.0 0.00 0.00 0.00 63 1013.9
20260901170439 84 249 0.0 1.0 0.00 0.00 0.00 62 1013.5
20260901165938 84 200 1.0 1.0 0.00 0.00 0.00 69 1013.9
20260901165433 83 170 0.0 0.0 0.00 0.00 0.00 67 1013.5
20260901164929 84 163 0.0 1.0 0.00 0.00 0.00 66 1013.9
20260901164424 83 155 2.0 3.0 0.00 0.00 0.00 70 1013.5
20260901163919 83 154 0.0 0.0 0.00 0.00 0.00 72 1013.9
20260901163414 83 155 0.0 1.0 0.00 0.00 0.00 70 1013.9
20260901162908 82 168 0.0 0.0 0.00 0.00 0.00 72 1013.5
20260901162408 81 250 1.0 1.0 0.00 0.00 0.00 72 1013.9
20260901161902 82 152 1.0 1.0 0.00 0.00 0.00 71 1013.9
20260901161401 82 180 0.0 1.0 0.00 0.00 0.00 75 1013.9
20260901160856 81 218 1.0 1.0 0.00 0.00 0.00 74 1013.9
20260901160353 82 134 0.0 1.0 0.00 0.00 0.00 76 1013.9
20260901155851 82 157 1.0 2.0 0.00 0.00 0.00 71 1013.9
20260901155346 81 179 0.0 0.0 0.00 0.00 0.00 73 1014.2
20260901154843 80 193 0.0 0.0 0.00 0.00 0.00 75 1014.2
20260901154342 79 186 0.0 0.0 0.00 0.00 0.00 75 1014.2
20260901153836 80 175 1.0 1.0 0.00 0.00 0.00 75 1014.2
20260901153326 79 162 0.0 0.0 0.00 0.00 0.00 78 1014.2
20260901152824 79 173 0.0 1.0 0.00 0.00 0.00 78 1014.2
20260901152324 78 159 0.0 1.0 0.00 0.00 0.00 79 1014.2
20260901151820 77 174 0.0 0.0 0.00 0.00 0.00 82 1013.9
20260901151314 77 182 0.0 0.0 0.00 0.00 0.00 83 1014.2
20260901150814 76 181 0.0 0.0 0.00 0.00 0.00 87 1014.2
20260901150312 76 195 1.0 1.0 0.00 0.00 0.00 89 1014.5
20260901145809 74 173 0.0 0.0 0.00 0.00 0.00 90 1014.2
20260901145306 74 183 0.0 0.0 0.00 0.00 0.00 90 1014.5
20260901144759 73 190 0.0 0.0 0.00 0.00 0.00 88 1014.2
20260901144255 74 181 0.0 0.0 0.00 0.00 0.00 91 1014.5
20260901143750 74 167 0.0 0.0 0.00 0.00 0.00 91 1014.2
20260901143246 73 150 0.0 0.0 0.00 0.00 0.00 91 1014.5
20260901142742 72 176 0.0 0.0 0.00 0.00 0.00 93 1014.5
20260901142241 71 176 0.0 0.0 0.00 0.00 0.00 95 1014.5
20260901141737 70 187 0.0 0.0 0.00 0.00 0.00 96 1014.5
20260901141236 69 184 0.0 0.0 0.00 0.00 0.00 99 1014.5
20260901140736 68 181 0.0 0.0 0.00 0.00 0.00 99 1014.5
20260901140234 68 180 0.0 0.0 0.00 0.00 0.00 99 1014.5
20260901135730 68 173 0.0 0.0 0.00 0.00 0.00 99 1014.2
20260901135229 67 172 0.0 0.0 0.00 0.00 0.00 99 1014.2
20260901134726 67 172 0.0 0.0 0.00 0.00 0.00 99 1014.5
20260901134226 66 171 0.0 0.0 0.00 0.00 0.00 99 1014.5
20260901133725 66 168 0.0 0.0 0.00 0.00 0.00 99 1014.2
20260901133224 66 168 0.0 0.0 0.00 0.00 0.00 99 1014.2
20260901132723 65 168 0.0 0.0 0.00 0.00 0.00 99 1014.2
20260901132218 64 166 0.0 0.0 0.00 0.00 0.00 99 1014.2
20260901131713 64 173 0.0 0.0 0.00 0.00 0.00 99 1014.2
20260901131212 62 173 0.0 0.0 0.00 0.00 0.00 99 1014.5
20260901130708 61 173 0.0 0.0 0.00 0.00 0.00 99 1014.2
20260901130207 60 180 0.0 0.0 0.00 0.00 0.00 99 1014.2
20260901125705 59 198 0.0 0.0 0.00 0.00 0.00 99 1014.2
20260901125200 58 189 0.0 0.0 0.00 0.00 0.00 99 1014.2
20260901124655 58 173 0.0 0.0 0.00 0.00 0.00 99 1013.9
20260901124149 58 173 0.0 0.0 0.00 0.00 0.00 99 1013.9
20260901123643 57 174 0.0 0.0 0.00 0.00 0.00 99 1013.9
20260901123143 56 172 0.0 0.0 0.00 0.00 0.00 99 1013.9
20260901122642 55 172 0.0 0.0 0.00 0.00 0.00 99 1013.9
20260901122136 55 172 0.0 0.0 0.00 0.00 0.00 99 1013.9
20260901121631 55 172 0.0 0.0 0.00 0.00 0.00 99 1013.9
20260901121127 55 172 0.0 0.0 0.00 0.00 0.00 99 1013.5
20260901120626 55 172 0.0 0.0 0.00 0.00 0.00 99 1013.5
20260901120121 55 171 0.0 0.0 0.00 0.00 0.00 99 1013.5
20260901115617 55 164 0.0 0.0 0.00 0.00 0.00 99 1013.5
20260901115114 55 178 0.0 0.0 0.00 0.00 0.00 99 1013.5
20260901114610 55 178 0.0 0.0 0.00 0.00 0.00 99 1013.5
20260901114109 55 178 0.0 0.0 0.00 0.00 0.00 99 1013.9
20260901113608 55 179 0.0 0.0 0.00 0.00 0.00 99 1013.5
20260901113103 55 179 0.0 0.0 0.00 0.00 0.00 99 1013.2
20260901112603 55 179 0.0 0.0 0.00 0.00 0.00 99 1013.2
20260901112057 55 179 0.0 0.0 0.00 0.00 0.00 99 1013.2
20260901111556 55 179 0.0 0.0 0.00 0.00 0.00 99 1013.2
20260901111055 55 179 0.0 0.0 0.00 0.00 0.00 99 1013.2
20260901110551 55 176 0.0 0.0 0.00 0.00 0.00 99 1013.2
20260901110046 55 177 0.0 0.0 0.00 0.00 0.00 99 1012.9
20260901105543 55 171 0.0 0.0 0.00 0.00 0.00 99 1012.9
20260901105042 55 162 0.0 0.0 0.00 0.00 0.00 99 1012.9
20260901104539 55 166 0.0 0.0 0.00 0.00 0.00 99 1013.2
20260901104033 55 166 0.0 0.0 0.00 0.00 0.00 99 1013.2
20260901103528 55 166 0.0 0.0 0.00 0.00 0.00 99 1013.2
20260901103024 55 166 0.0 0.0 0.00 0.00 0.00 99 1012.9
20260901102524 0 0.0 0.0 0.00 0.00 0.00 1013.2
20260901102018 0 0.0 0.0 0.00 0.00 0.00 1013.2
20260901101514 0 0.0 0.0 0.00 0.00 0.00 1012.9
20260901101013 0 0.0 0.0 0.00 0.00 0.00 1012.9
20260901100508 0 0.0 0.0 0.00 0.00 0.00 1012.9
20260901100008 0 0.0 0.0 0.00 0.00 0.00 1012.9
20260901095506 0 0.0 0.0 0.00 0.00 0.00 1012.9
20260901095004 0 0.0 0.0 0.00 0.00 0.00 1012.9
20260901094459 0 0.0 0.0 0.00 0.00 0.00 1013.2
20260901093958 0 0.0 0.0 0.00 0.00 0.00 1012.9
20260901093458 0 0.0 0.0 0.00 0.00 0.00 1012.9
20260901092953 0 0.0 0.0 0.00 0.00 0.00 1012.9
20260901092449 0 0.0 0.0 0.00 0.00 0.00 1012.5
20260901091945 0 0.0 0.0 0.00 0.00 0.00 1012.9
20260901091440 0 0.0 0.0 0.00 0.00 0.00 1012.9
20260901090935 0 0.0 0.0 0.00 0.00 0.00 1012.9
20260901090434 0 0.0 0.0 0.00 0.00 0.00 1012.9
20260901085930 0 0.0 0.0 0.00 0.00 0.00 1012.9
20260901085426 0 0.0 0.0 0.00 0.00 0.00 1012.9
20260901084922 0 0.0 0.0 0.00 0.00 0.00 1012.9
20260901084418 0 0.0 0.0 0.00 0.00 0.00 1012.9
20260901083914 0 0.0 0.0 0.00 0.00 0.00 1012.9
20260901083414 0 0.0 0.0 0.00 0.00 0.00 1012.9
20260901082912 0 0.0 0.0 0.00 0.00 0.00 1012.9
20260901082408 0 0.0 0.0 0.00 0.00 0.00 1012.9
20260901081902 0 0.0 0.0 0.00 0.00 0.00 1012.9
20260901081357 0 0.0 0.0 0.00 0.00 0.00 1013.2
20260901080857 0 0.0 0.0 0.00 0.00 0.00 1013.2
20260901080352 59 183 0.0 0.0 0.00 0.00 0.00 99 1013.2
20260901075846 59 183 0.0 0.0 0.00 0.00 0.00 99 1013.2
20260901075341 59 183 0.0 0.0 0.00 0.00 0.00 99 1013.2
20260901074836 59 183 0.0 0.0 0.00 0.00 0.00 99 1013.5
20260901074331 59 183 0.0 0.0 0.00 0.00 0.00 99 1013.2
20260901073826 59 183 0.0 0.0 0.00 0.00 0.00 99 1013.2
20260901073322 59 183 0.0 0.0 0.00 0.00 0.00 99 1013.2
20260901072818 59 183 0.0 0.0 0.00 0.00 0.00 99 1013.2
20260901072317 59 183 0.0 0.0 0.00 0.00 0.00 99 1013.2
20260901071813 59 183 0.0 0.0 0.00 0.00 0.00 99 1013.2
20260901071311 59 183 0.0 0.0 0.00 0.00 0.00 99 1013.2
20260901070810 59 183 0.0 0.0 0.00 0.00 0.00 99 1013.5
20260901070306 61 170 0.0 0.0 0.00 0.00 0.00 99 1013.2
20260901065805 61 170 0.0 0.0 0.00 0.00 0.00 99 1013.2
20260901065300 61 170 0.0 0.0 0.00 0.00 0.00 99 1013.2
20260901064756 61 170 0.0 0.0 0.00 0.00 0.00 99 1013.2
20260901064252 61 170 0.0 0.0 0.00 0.00 0.00 99 1013.2
20260901063750 61 170 0.0 0.0 0.00 0.00 0.00 99 1012.9
20260901063245 61 170 0.0 0.0 0.00 0.00 0.00 99 1013.2
20260901062741 61 170 0.0 0.0 0.00 0.00 0.00 99 1012.9
20260901062237 61 170 0.0 0.0 0.00 0.00 0.00 99 1013.2
20260901061733 61 170 0.0 0.0 0.00 0.00 0.00 99 1012.9
20260901061232 61 170 0.0 0.0 0.00 0.00 0.00 99 1012.9
20260901060727 61 170 0.0 0.0 0.00 0.00 0.00 99 1012.9
20260901060223 61 170 0.0 0.0 0.00 0.00 0.00 99 1012.9
20260901055718 0 0.0 0.0 0.00 0.00 0.00 1012.9
20260901055215 0 0.0 0.0 0.00 0.00 0.00 1012.9
20260901054711 0 0.0 0.0 0.00 0.00 0.00 1012.9
20260901054208 63 162 0.0 0.0 0.00 0.00 0.00 99 1012.9
20260901053703 63 162 0.0 0.0 0.00 0.00 0.00 99 1012.9
20260901053159 63 162 0.0 0.0 0.00 0.00 0.00 99 1012.5
20260901052654 63 162 0.0 0.0 0.00 0.00 0.00 99 1012.5
20260901052149 63 162 0.0 0.0 0.00 0.00 0.00 99 1012.9
20260901051648 63 162 0.0 0.0 0.00 0.00 0.00 99 1012.5
20260901051148 63 162 0.0 0.0 0.00 0.00 0.00 99 1012.9
20260901050643 63 162 0.0 0.0 0.00 0.00 0.00 99 1012.5
20260901050138 63 162 0.0 0.0 0.00 0.00 0.00 99 1012.2
20260901045638 63 162 0.0 0.0 0.00 0.00 0.00 99 1012.5
20260901045133 63 162 0.0 0.0 0.00 0.00 0.00 99 1012.2
20260901044629 63 162 0.0 0.0 0.00 0.00 0.00 99 1012.2
20260901044125 63 162 0.0 0.0 0.00 0.00 0.00 99 1012.5
20260901043620 65 163 0.0 0.0 0.00 0.00 0.00 99 1012.2
20260901043116 65 163 0.0 0.0 0.00 0.00 0.00 99 1012.5
20260901042615 65 163 0.0 0.0 0.00 0.00 0.00 99 1012.5
20260901042110 65 163 0.0 0.0 0.00 0.00 0.00 99 1012.5
20260901041606 65 163 0.0 0.0 0.00 0.00 0.00 99 1012.5
20260901041101 65 163 0.0 0.0 0.00 0.00 0.00 99 1012.5
20260901040600 65 163 0.0 0.0 0.00 0.00 0.00 99 1012.5
20260901040055 65 163 0.0 0.0 0.00 0.00 0.00 99 1012.5
20260901035553 65 163 0.0 0.0 0.00 0.00 0.00 99 1012.5
20260901035052 65 163 0.0 0.0 0.00 0.00 0.00 99 1012.5
20260901034551 65 163 0.0 0.0 0.00 0.00 0.00 99 1012.2
20260901034051 65 163 0.0 0.0 0.00 0.00 0.00 99 1012.2
20260901033550 66 163 0.0 0.0 0.00 0.00 0.00 99 1012.5
20260901033045 66 163 0.0 0.0 0.00 0.00 0.00 99 1012.2